Regional Weather Roundup
Issued by NWS Sterling, VA

Home | Current Version | Previous Version | Graphics & Text | Print | Product List | Glossary On
Versions: 1 2 3 4 5 6 7 8 9 10 11 12 13 14 15 16 17 18 19 20 21 22 23 24 25 26 27 28 29 30 31 32 33 34 35 36 37 38 39 40 41 42 43 44 45 46 47 48 49 50
000
ASUS41 KLWX 250910
RWRLWX

REGIONAL WEATHER ROUNDUP
NATIONAL WEATHER SERVICE BALTIMORE MD/WASHINGTON DC
500 AM EDT FRI JUL 25 2014

Note: "FAIR" indicates few or no clouds below 12,000 feet
with no significant weather and/or obstructions to visibility.
 TC=TEMPERATURE CELSIUS

 * =Non NWS site. Station does not report precipitation (e.g. rain,
    snow, etc.), thunder, or fog.

DCZ001-MDZ009-015-VAZ040>042-051-053>054-251000-
WASHINGTON METRO
  /KDAA//-FT BELVOIR

CITY           SKY/WX    TMP DP  RH WIND       PRES   REMARKS
WASHINGTON NAT CLEAR     67  55  65 VRB3      30.01R
DULLES         CLEAR     57  55  93 W3        30.02R
ANDREWS AFB    CLEAR     60  54  81 N6        30.00R
QUANTICO       CLEAR     63  58  83 N3        30.02R
COLLEGE PARK*  CLEAR     59  57  94 CALM      30.00R
LEESBURG*      CLEAR     61  59  94 N5        30.04R
MANASSAS*      CLEAR     57  57 100 CALM      30.02R
GAITHERSBURG*  CLEAR     57  52  82 CALM      30.05R

$$

MDZ006>007-011-014-251000-
BALTIMORE METRO

CITY           SKY/WX    TMP DP  RH WIND       PRES   REMARKS
BWI AIRPORT    CLEAR     61  53  75 CALM      30.00R
MD SCIENCE CTR   N/A     67  52  58 MISG      30.00R
MARTIN STATE   CLEAR     61  54  77 NW6       30.01R
ANNAPOLIS      CLEAR     68  56  65 N7        29.99R
FORT MEADE*    CLEAR     54  52  94 CALM      30.03R

$$

MDZ012-015-019>023-251000-
MARYLAND EASTERN SHORE

CITY           SKY/WX    TMP DP  RH WIND       PRES   REMARKS
OCEAN CITY     MOCLDY    68  60  75 N7        29.94S
SALISBURY      NOT AVBL
BAY BRIDGE AP*   N/A     68  52  56 N7        29.99R
CAMBRIDGE*     CLEAR     68  54  60 N6        29.97R
EASTON*        CLEAR     65  57  76 CALM      30.02R

$$

MDZ017>025-251000-
SOUTHERN MARYLAND

CITY           SKY/WX    TMP DP  RH WIND       PRES   REMARKS
PATUXENT RIVER CLEAR     69  56  62 NE10      29.98R
ST INIGOES     CLEAR     65  60  84 CALM      29.97R
LEONARDTOWN*   CLEAR     61  57  88 CALM      30.00R

$$

MDZ003>005-251000-
NORTH CENTRAL MARYLAND

CITY           SKY/WX    TMP DP  RH WIND       PRES   REMARKS
FREDERICK*     CLEAR     57  57 100 CALM      30.05R
HAGERSTOWN APT CLEAR     59  51  75 CALM      30.03R
WESTMINSTER*   PTCLDY    57  55  94 CALM      30.03R

$$

MDZ501>502-251000-
WESTERN MARYLAND

CITY           SKY/WX    TMP DP  RH WIND       PRES   REMARKS
OAKLAND*       CLEAR     54  52  94 E3        30.10S
CUMBERLAND*    CLEAR     55  54  94 CALM      30.10R

$$

VAZ025>031-251000-
SHENANDOAH VALLEY

CITY           SKY/WX    TMP DP  RH WIND       PRES   REMARKS
WINCHESTER*    CLEAR     55  54  94 NW3       30.04R
STAUNTON*      CLOUDY    66  63  92 CALM      30.06S FOG

$$

WVZ021-048>050-054>055-251000-
EASTERN WEST VIRGINIA PANHANDLE

CITY           SKY/WX    TMP DP  RH WIND       PRES   REMARKS
MARTINSBURG    CLEAR     60  51  72 N6        30.04R
PETERSBURG*    CLOUDY    52  48  89 CALM      30.07S FOG

$$

VAZ036>039-050-251000-
CENTRAL FOOTHILLS

CITY           SKY/WX    TMP DP  RH WIND       PRES   REMARKS
CHARLOTTESVILL FOG       61  60  97 CALM      30.02R VSB 3/4
ORANGE*        FOG       57  55  94 CALM      30.03R VSB 1/4

$$

VAZ055>057-251000-
NORTH AND CENTRAL PIEDMONT

CITY           SKY/WX    TMP DP  RH WIND       PRES   REMARKS
FREDERICKSBRG* CLEAR     62  62 100 CALM      30.00R
STAFFORD*      CLEAR     60  60 100 N7        30.05R

$$

NCZ024-NYZ072-PAZ021-071-VAZ022-071-251000-
OTHER REGIONAL OBSERVATIONS

CITY           SKY/WX    TMP DP  RH WIND       PRES   REMARKS
NEW YORK CITY  CLEAR     67  53  61 VRB6      29.99R
PHILADELPHIA   CLEAR     64  51  62 N7        29.97S
PITTSBURGH     CLEAR     54  50  86 CALM      30.06S
ROANOKE        LGT RAIN  64  61  90 N7        30.06S
RICHMOND       PTCLDY    67  64  90 N6        29.98F
RALEIGH        FOG       67  65  93 CALM      30.00R VSB 1/2

$$

ANZ530>537-251000-
MARINE OBSERVATIONS

STATION/POSITION TIME  TEMP    WIND        PRES
                       AIR SEA DIR/SP/G
                 (UTC) (F)     (DEG/KT/KT) (MB)
THOMAS PT LIGHT  0900   69 79  350/ 12/ 12 1015.9R
BALT KEY BRIDGE  0900   67     360/  9/ 11 1015.1S
COVE POINT       0900   72      50/ 11/ 15 1014.8R
LEWISETTA        0900   72 79   30/  7/ 12 1014.7R
SOLOMONS ISLAND  0900      80                N/A
PINEY POINT      0900           30/  7/  9   N/A

$$



USA.gov is the U.S. government's official web portal to all federal, state and local government web resources and services.